Stations météo

réclame
Mon MeteoGroup
Kempten, Allemagne (10946): Température de l'air & dewpoint: 02.07.2020 16:00:00 - 08.07.2020 16:00:00 (CEST)Kempten, Allemagne (10946): Température de l'air 5cm & Température de l'air -5cm: 02.07.2020 16:00:00 - 08.07.2020 16:00:00 (CEST)Kempten, Allemagne (10946): Température de l'air -20cm & Température de l'air -100cm: 02.07.2020 16:00:00 - 08.07.2020 16:00:00 (CEST)Kempten, Allemagne (10946): Vitesse du vent & gusts: 02.07.2020 16:00:00 - 08.07.2020 16:00:00 (CEST)Kempten, Allemagne (10946): Direction du vent: 02.07.2020 16:00:00 - 08.07.2020 16:00:00 (CEST)Kempten, Allemagne (10946): reduced air pressure: 02.07.2020 16:00:00 - 08.07.2020 16:00:00 (CEST)Kempten, Allemagne (10946): visibility: 02.07.2020 16:00:00 - 08.07.2020 16:00:00 (CEST)Kempten, Allemagne (10946): Ensoleillement: 02.07.2020 16:00:00 - 08.07.2020 16:00:00 (CEST)Kempten, Allemagne (10946): Quantités de précipitations: 02.07.2020 16:00:00 - 08.07.2020 16:00:00 (CEST)
Date & Time tt [°C] td [°C] tt 5cm [°C] tt -5cm [°C] tt -20cm [°C] tt -100cm [°C] ff [km/h] ff [knt] fx [km/h] fx [knt] dd ppp [hPa] vv [km] sd [min] rr [mm]
08.07.2020 16:00:00 22,7 5,2 25,7 29,8 22,2 16,6 12 6 34 19 W 1015,3 30 43 0,0
08.07.2020 15:00:00 23,3 5,1 29,1 31,1 21,4 16,6 17 9 36 19 SW 1014,9 14 60 0,0
08.07.2020 14:00:00 23,1 5,1 32,1 29,9 20,5 16,6 11 6 34 19 WSW 1015,1 13 60 0,0
08.07.2020 13:00:00 22,0 5,5 29,8 28,0 19,7 16,6 13 7 28 15 W 1015,6 18 60 0,0
08.07.2020 12:00:00 20,8 7,2 28,5 25,6 18,9 16,6 12 6 27 14 WSW 1016,0 28 60 0,0
08.07.2020 11:00:00 20,7 8,5 28,7 23,2 18,3 16,6 8 4 24 13 W 1016,2 15 60 0,0
08.07.2020 10:00:00 19,1 7,9 25,0 20,1 18,0 16,6 9 5 21 12 WSW 1016,7 23 60 0,0
08.07.2020 09:00:00 17,4 10,2 20,8 16,3 18,1 16,6 5 3 12 6 ESE 1017,4 20 60 0,0
08.07.2020 08:00:00 14,3 9,4 13,6 15,2 18,3 16,6 6 3 13 7 SSE 1018,3 26 60 0,0
08.07.2020 07:00:00 11,3 8,1 11,0 14,0 18,6 16,6 5 3 10 6 SSE 1019,2 37 12 0,0
08.07.2020 06:00:00 10,0 7,6 7,8 14,2 19,0 16,6 5 3 13 7 SE 1019,3 34 0 0,0
08.07.2020 05:00:00 10,2 7,5 8,2 14,6 19,5 16,6 5 3 14 7 SE 1019,1 38 0 0,0
08.07.2020 04:00:00 10,7 7,7 8,8 15,2 19,9 16,6 7 4 15 8 SSE 1019,0 37 0 0,0
08.07.2020 03:00:00 11,1 7,9 9,1 15,8 20,4 16,6 7 4 16 9 SSE 1019,3 43 0 0,0
08.07.2020 02:00:00 11,0 8,1 8,6 16,6 21,0 16,6 7 4 12 7 SE 1019,4 33 0 0,0
08.07.2020 01:00:00 10,4 8,4 8,3 17,5 21,5 16,6 6 3 10 5 SE 1019,8 30 0 0,0
08.07.2020 00:00:00 10,4 8,6 8,9 18,7 22,1 16,6 7 4 9 5 ESE 1020,0 32 0 0,0
07.07.2020 23:00:00 11,8 9,0 10,1 20,1 22,7 16,6 5 3 8 4 E 1019,4 40 0 0,0
07.07.2020 22:00:00 14,3 9,1 11,7 21,9 23,2 16,6 5 3 10 5 NE 1018,3 47 0 0,0
07.07.2020 21:00:00 17,1 9,0 14,8 24,2 23,5 16,6 2 1 9 5 NNW 1017,0 45 45 0,0
07.07.2020 20:00:00 19,6 5,0 19,4 26,8 23,5 16,6 6 4 16 9 NNW 1016,4 55 60 0,0
07.07.2020 19:00:00 20,4 5,6 22,0 28,8 23,3 16,6 5 3 17 9 NW 1016,2 9 60 0,0
07.07.2020 18:00:00 20,6 5,5 23,6 30,2 22,8 16,6 6 3 22 12 NW 1016,4 21 60 0,0
07.07.2020 17:00:00 20,3 5,8 24,7 30,9 22,2 16,6 6 3 20 11 N 1016,8 38 60 0,0
07.07.2020 16:00:00 19,5 4,3 24,9 30,8 21,4 16,6 7 4 20 11 N 1017,3 9 60 0,0
07.07.2020 15:00:00 19,4 5,8 26,2 30,2 20,5 16,6 5 3 18 10 NNE 1017,5 23 60 0,0
07.07.2020 14:00:00 18,7 4,9 25,8 28,8 19,5 16,6 6 3 16 9 N 1018,0 28 60 0,0
07.07.2020 13:00:00 18,7 5,2 27,3 26,8 18,6 16,5 3 2 17 9 E 1018,4 33 60 0,0
07.07.2020 12:00:00 16,7 4,5 23,5 24,2 17,8 16,5 7 4 16 9 NNE 1019,2 23 60 0,0
07.07.2020 11:00:00 16,3 5,4 22,3 21,8 17,2 16,5 7 4 16 9 E 1019,6 22 60 0,0
07.07.2020 10:00:00 15,9 7,3 21,7 18,6 16,9 16,5 3 2 9 5 SSW 1020,2 25 60 0,0
07.07.2020 09:00:00 13,9 6,7 17,9 14,7 17,0 16,5 4 2 8 4 E 1021,1 25 60 0,0
07.07.2020 08:00:00 12,1 6,9 11,2 13,8 17,2 16,5 0 0 5 3 N 1022,3 41 60 0,0
07.07.2020 07:00:00 8,0 6,3 7,7 12,6 17,5 16,5 5 3 8 4 E 1023,7 23 13 0,0
07.07.2020 06:00:00 7,4 6,2 6,2 13,0 17,8 16,5 5 3 7 4 ESE 1023,8 23 0 0,0
07.07.2020 05:00:00 7,8 6,5 6,9 13,5 18,2 16,5 6 3 9 5 ESE 1023,4 25 0 0,0
07.07.2020 04:00:00 8,3 7,2 7,0 14,1 18,6 16,5 3 1 7 4 E 1023,1 23 0 0,0
07.07.2020 03:00:00 9,4 7,2 7,2 14,8 18,9 16,5 3 1 8 4 E 1022,6 31 0 0,0
07.07.2020 02:00:00 11,2 8,4 10,4 15,8 19,2 16,5 3 2 5 3 E 1022,4 36 0 0,0
07.07.2020 01:00:00 11,7 8,4 11,0 16,2 19,5 16,5 2 1 7 4 N 1022,4 41 0 0,0
07.07.2020 00:00:00 12,6 7,8 11,3 16,8 19,8 16,5 0 0 10 5 N 1022,2 42 0 0,0
06.07.2020 23:00:00 14,2 5,2 13,1 17,4 20,0 16,5 3 1 7 4 W 1021,5 43 0 0,0
06.07.2020 22:00:00 14,5 5,7 13,5 17,8 20,3 16,5 2 1 19 10 W 1020,9 43 0 0,0
06.07.2020 21:00:00 15,2 5,7 14,6 18,4 20,6 16,5 10 5 32 18 NNW 1019,7 38 4 0,0
06.07.2020 20:00:00 16,5 6,7 16,2 19,5 20,8 16,5 11 6 23 12 NW 1018,3 46 0 0,0
06.07.2020 19:00:00 17,0 11,5 17,2 20,0 21,0 16,4 5 3 18 10 WSW 1016,9 45 0 0,0
06.07.2020 18:00:00 17,0 11,7 17,6 20,7 21,2 16,4 10 5 24 13 WSW 1016,5 44 0 0,0
06.07.2020 17:00:00 16,9 12,2 18,1 21,1 21,3 16,4 10 5 22 12 SW 1016,1 55 0 0,0
06.07.2020 16:00:00 16,4 12,3 17,3 21,4 21,5 16,4 10 5 21 12 W 1016,3 45 0 0,0
06.07.2020 15:00:00 16,0 12,7 17,6 22,5 21,5 16,4 11 6 26 14 W 1016,2 26 0 0,0
06.07.2020 14:00:00 16,5 12,8 18,8 24,2 21,4 16,4 11 6 29 16 NW 1015,9 53 7 0,5
06.07.2020 13:00:00 16,0 12,7 18,2 25,3 21,0 16,4 14 8 29 16 NNW 1015,7 33 12 0,0
06.07.2020 12:00:00 18,6 14,6 26,6 24,9 20,5 16,4 10 5 34 18 NNW 1014,4 26 30 0,0
06.07.2020 11:00:00 21,6 14,1 28,9 24,0 20,1 16,4 18 10 40 22 W 1013,2 27 46 0,0
06.07.2020 10:00:00 20,6 14,3 26,4 22,3 19,9 16,4 16 9 40 22 W 1013,5 21 57 0,0
06.07.2020 09:00:00 20,2 14,4 22,8 19,6 20,0 16,4 15 8 36 19 WSW 1013,4 33 42 0,0
06.07.2020 08:00:00 19,7 14,1 19,7 19,0 20,1 16,4 13 7 30 16 WSW 1013,5 31 58 0,0
06.07.2020 07:00:00 18,5 14,2 17,2 18,1 20,3 16,4 8 4 23 12 SW 1013,9 58 2 0,0
06.07.2020 06:00:00 18,6 14,0 16,9 18,3 20,6 16,4 6 3 22 12 SW 1014,5 55 0 0,0
06.07.2020 05:00:00 18,8 14,1 16,5 18,3 20,9 16,4 9 5 22 12 SW 1014,7 52 0 0,0
06.07.2020 04:00:00 18,7 13,9 16,6 18,4 21,2 16,4 9 5 22 12 W 1015,2 48 0 0,0
06.07.2020 03:00:00 17,9 13,9 15,1 19,0 21,6 16,4 9 5 16 8 SW 1015,5 44 0 0,0
06.07.2020 02:00:00 19,5 14,4 17,3 19,8 22,0 16,4 10 6 22 12 SW 1015,5 58 0 0,0
06.07.2020 01:00:00 20,1 15,2 17,8 20,5 22,4 16,4 9 5 20 11 WSW 1015,4 63 0 0,0
06.07.2020 00:00:00 20,1 15,8 17,9 21,2 22,9 16,4 7 4 16 9 W 1015,3 48 0 0,0
05.07.2020 23:00:00 19,0 15,5 16,6 22,3 23,3 16,4 5 3 10 5 WSW 1015,5 48 0 0,0
05.07.2020 22:00:00 21,1 15,4 18,0 23,7 23,7 16,4 4 2 16 9 WSW 1014,8 59 0 0,0
05.07.2020 21:00:00 23,0 15,1 21,1 25,5 23,9 16,4 8 4 26 14 WSW 1014,1 53 46 0,0
05.07.2020 20:00:00 24,3 14,7 24,5 27,6 23,9 16,4 11 6 26 14 WSW 1014,0 43 60 0,0
05.07.2020 19:00:00 25,3 14,8 26,9 29,2 23,6 16,4 7 4 28 15 W 1013,8 26 60 0,0
05.07.2020 18:00:00 25,4 14,5 28,5 30,3 23,2 16,4 14 8 29 16 W 1013,9 27 60 0,0
05.07.2020 17:00:00 25,8 13,9 30,2 30,8 22,5 16,4 13 7 36 19 W 1014,1 27 60 0,0
05.07.2020 16:00:00 25,4 13,5 30,5 30,6 21,8 16,4 16 9 38 20 WSW 1014,7 10 60 0,0
05.07.2020 15:00:00 25,0 12,2 30,6 29,8 21,0 16,3 16 9 36 20 WSW 1015,4 27 60 0,0
05.07.2020 14:00:00 24,1 11,3 30,7 28,5 20,2 16,3 17 9 37 20 W 1016,0 21 60 0,0
05.07.2020 13:00:00 23,8 11,5 31,0 26,5 19,4 16,3 16 9 37 20 WSW 1016,6 14 52 0,0
05.07.2020 12:00:00 21,7 12,0 27,9 23,5 18,9 16,3 12 7 27 15 SW 1017,6 48 2 0,0
05.07.2020 11:00:00 20,9 11,4 25,2 22,9 18,3 16,3 14 7 31 17 W 1018,0 38 51 0,0
05.07.2020 10:00:00 20,9 11,9 27,5 20,4 18,0 16,3 11 6 30 16 WSW 1017,9 20 60 0,0
05.07.2020 09:00:00 19,8 11,1 23,7 17,3 18,0 16,3 10 5 23 13 W 1018,2 19 60 0,0
05.07.2020 08:00:00 17,6 11,5 16,5 16,2 18,2 16,3 8 4 14 7 SSW 1019,0 46 60 0,0
05.07.2020 07:00:00 13,6 11,4 13,1 14,8 18,5 16,3 7 4 13 7 S 1020,4 37 13 0,0
05.07.2020 06:00:00 12,4 10,4 10,4 14,8 18,8 16,3 6 3 13 7 S 1021,0 28 0 0,0
05.07.2020 05:00:00 12,4 10,7 10,3 15,2 19,2 16,3 5 3 12 7 SE 1020,8 30 0 0,0
05.07.2020 04:00:00 13,0 10,9 10,8 15,7 19,6 16,3 6 3 15 8 S 1020,9 23 0 0,0
05.07.2020 03:00:00 12,8 11,2 10,8 16,2 20,0 16,3 5 3 12 7 SSE 1021,3 35 0 0,0
05.07.2020 02:00:00 13,2 11,3 11,1 16,8 20,4 16,3 5 3 10 6 SE 1021,2 21 0 0,0
05.07.2020 01:00:00 14,0 11,5 11,4 17,6 20,9 16,3 3 2 11 6 S 1020,8 27 0 0,0
05.07.2020 00:00:00 14,2 11,5 12,2 18,5 21,4 16,3 6 3 10 5 SE 1020,5 29 0 0,0
04.07.2020 23:00:00 15,4 11,5 13,0 19,6 21,8 16,3 5 3 15 8 SSE 1019,9 31 0 0,0
04.07.2020 22:00:00 17,6 11,4 15,3 21,0 22,2 16,3 9 5 16 9 SSW 1019,3 35 0 0,0
04.07.2020 21:00:00 19,8 10,9 17,8 23,0 22,4 16,3 7 4 18 10 W 1018,4 39 43 0,0
04.07.2020 20:00:00 21,1 10,9 21,2 25,0 22,4 16,3 9 5 28 15 W 1017,6 44 60 0,0
04.07.2020 19:00:00 21,7 10,7 23,3 26,8 22,2 16,3 10 5 24 13 SW 1017,3 16 60 0,0
04.07.2020 18:00:00 22,3 10,3 24,9 27,8 21,8 16,3 14 7 27 15 W 1017,5 25 58 0,0
04.07.2020 17:00:00 22,2 10,9 27,6 28,6 21,2 16,3 11 6 24 13 W 1017,4 18 60 0,0
04.07.2020 16:00:00 22,9 12,5 28,8 27,6 20,6 16,3 9 5 22 12 W 1017,0 23 42 0,0
04.07.2020 15:00:00 21,2 10,6 25,4 26,3 20,0 16,3 5 3 18 10 N 1017,8 52 19 0,0
04.07.2020 14:00:00 20,7 10,7 24,4 26,4 19,3 16,3 5 3 15 8 NW 1018,4 36 40 0,0
04.07.2020 13:00:00 20,2 11,2 24,7 24,5 18,6 16,3 4 2 14 8 NW 1019,0 45 18 0,0
04.07.2020 12:00:00 19,3 11,8 23,0 23,9 18,0 16,3 4 2 17 9 NNW 1019,4 41 43 0,0
04.07.2020 11:00:00 18,7 11,8 28,0 21,6 17,4 16,3 5 3 16 8 WNW 1019,7 32 38 0,0
04.07.2020 10:00:00 18,4 11,8 24,6 19,6 17,0 16,3 3 2 11 6 S 1019,7 42 60 0,0
04.07.2020 09:00:00 15,7 11,4 20,1 15,9 17,0 16,3 6 4 14 8 S 1020,6 24 60 0,0
04.07.2020 08:00:00 13,6 10,4 13,1 14,9 17,1 16,3 8 4 16 9 S 1021,2 34 60 0,0
04.07.2020 07:00:00 11,5 9,9 10,8 13,6 17,3 16,3 6 3 14 8 S 1021,7 29 0 0,0
04.07.2020 06:00:00 10,8 9,8 9,9 13,3 17,6 16,3 7 4 13 7 SSE 1021,7 26 0 0,0
04.07.2020 05:00:00 10,9 10,1 9,5 13,6 18,0 16,3 6 3 13 7 SE 1021,6 21 0 0,0
04.07.2020 04:00:00 10,8 10,4 9,7 14,0 18,3 16,3 6 3 10 6 SE 1021,6 18 0 0,0
04.07.2020 03:00:00 10,3 9,8 9,1 14,6 18,7 16,3 4 2 7 4 ESE 1021,7 12 0 0,0
04.07.2020 02:00:00 11,0 10,3 10,1 15,3 19,0 16,3 7 4 10 5 E 1021,4 12 0 0,0
04.07.2020 01:00:00 12,2 11,3 11,0 16,1 19,4 16,3 8 4 9 5 ESE 1021,2 14 0 0,0
04.07.2020 00:00:00 13,1 11,8 11,6 16,8 19,7 16,3 5 3 9 5 ESE 1021,1 29 0 0,0
03.07.2020 23:00:00 13,6 11,9 12,5 17,4 20,0 16,2 4 2 8 4 SE 1020,7 32 0 0,0
03.07.2020 22:00:00 15,4 11,5 14,2 18,4 20,3 16,2 5 3 14 8 S 1019,8 37 0 0,0
03.07.2020 21:00:00 16,3 10,9 15,8 19,4 20,5 16,2 9 5 19 10 SSW 1019,1 48 0 0,0
03.07.2020 20:00:00 16,9 11,2 16,9 20,6 20,6 16,2 7 4 15 8 SSW 1018,8 44 0 0,0
03.07.2020 19:00:00 17,7 10,7 18,6 21,5 20,6 16,2 5 3 15 8 SSW 1018,1 56 0 0,0
03.07.2020 18:00:00 17,7 8,9 19,1 22,3 20,5 16,2 6 4 13 7 S 1018,2 55 0 0,0
03.07.2020 17:00:00 17,9 10,2 21,4 22,5 20,3 16,2 4 2 9 5 SE 1018,3 51 0 0,0
03.07.2020 16:00:00 17,5 8,7 20,7 21,6 20,2 16,2 3 2 8 4 SSE 1018,5 41 0 0,0
03.07.2020 15:00:00 16,5 10,1 18,3 20,9 20,2 16,2 4 2 13 7 SW 1018,9 38 0 0,0
03.07.2020 14:00:00 16,8 11,3 18,4 21,3 20,1 16,2 3 2 9 5 NNW 1019,1 45 0 0,0
03.07.2020 13:00:00 15,5 11,8 16,4 20,9 20,0 16,2 3 2 13 7 SW 1019,5 16 0 0,0
03.07.2020 12:00:00 17,0 10,9 19,0 22,6 19,6 16,2 3 2 9 5 SSE 1018,7 42 0 0,0
03.07.2020 11:00:00 17,0 11,7 20,4 21,8 19,3 16,1 3 1 12 7 W 1018,5 32 11 0,0
03.07.2020 10:00:00 15,0 12,1 18,1 19,3 19,3 16,1 5 3 10 5 S 1018,9 22 12 0,0
03.07.2020 09:00:00 13,5 12,1 14,7 17,4 19,5 16,1 4 2 7 4 ESE 1019,2 31 0 0,3
03.07.2020 08:00:00 13,1 12,4 13,1 17,1 19,7 16,1 3 2 9 5 W 1019,0 2,7 0 1,5
03.07.2020 07:00:00 13,2 12,5 13,3 17,3 20,0 16,1 4 2 16 9 NNW 1018,7 2,4 0 1,9
03.07.2020 06:00:00 14,6 12,3 13,7 17,7 20,2 16,1 4 2 11 6 NNW 1017,5 14 0 0,1
03.07.2020 05:00:00 15,1 11,8 14,7 18,1 20,5 16,1 5 3 12 7 NNW 1016,7 45 0 0,0
03.07.2020 04:00:00 15,3 13,5 15,0 18,5 20,7 16,1 3 1 6 4 ENE 1016,4 40 0 0,0
03.07.2020 03:00:00 15,4 13,6 14,9 18,7 21,0 16,1 5 3 8 4 ESE 1016,3 30 0 0,0
03.07.2020 02:00:00 15,6 13,3 14,6 19,0 21,4 16,1 5 3 9 5 SSE 1016,2 40 0 0,0
03.07.2020 01:00:00 17,0 12,0 16,4 19,6 21,7 16,1 4 2 10 6 WSW 1016,0 53 0 0,0
03.07.2020 00:00:00 17,3 11,9 16,7 20,1 22,1 16,1 5 3 17 9 W 1015,7 49 0 0,0
02.07.2020 23:00:00 17,8 13,0 17,4 20,6 22,4 16,1 7 4 23 13 WNW 1015,1 52 0 0,0
02.07.2020 22:00:00 18,1 13,3 17,5 21,6 22,8 16,0 5 3 21 11 WSW 1014,2 49 0 0,0
02.07.2020 21:00:00 18,8 13,9 18,4 22,6 23,1 16,0 12 7 31 17 W 1013,4 56 0 0,0
02.07.2020 20:00:00 19,3 14,8 19,7 24,2 23,3 16,0 6 3 16 8 S 1012,7 47 0 0,0
02.07.2020 19:00:00 19,0 14,2 19,8 25,5 23,4 16,0 7 4 24 13 NW 1012,3 53 8 0,0
02.07.2020 18:00:00 21,9 14,3 25,0 27,5 23,2 16,0 11 6 23 12 SW 1010,8 50 28 0,0
02.07.2020 17:00:00 22,3 16,2 25,1 27,8 23,0 16,0 8 4 25 13 NW 1010,2 35 24 0,0
02.07.2020 16:00:00 23,0 15,5 29,7 28,2 22,5 16,0 11 6 32 18 NW 1010,4 25 18 0,0

tt = Température de l'air
td = dewpoint
tt 5cm = Température de l'air 5cm
tt -5cm = Température de l'air -5cm
tt -20cm = Température de l'air -20cm
tt -100cm = Température de l'air -100cm
ff = Vitesse du vent
fx = gusts
dd = Direction du vent
ppp = reduced air pressure
vv = visibility
sd = Ensoleillement
rr = Quantités de précipitations

stations d'obs. à proximité